Regional Weather Roundup
Issued by NWS

Home | Current Version | Previous Version | Graphics & Text | Print | Product List | Glossary On
Versions: 1 2 3 4 5 6 7 8 9 10 11 12 13 14 15 16 17 18 19 20 21 22 23 24 25 26 27 28 29 30 31 32 33 34 35 36 37 38 39 40 41 42 43 44 45 46 47 48 49 50
000
ASUS43 KIND 241509
RWRIN

WEATHER ROUNDUP FOR INDIANA
NATIONAL WEATHER SERVICE INDIANAPOLIS IN
1100 AM EDT SUN SEP 24 2017

NOTE: "FAIR" INDICATES FEW OR NO CLOUDS BELOW 12,000 FEET WITH NO
SIGNIFICANT WEATHER AND/OR OBSTRUCTIONS TO VISIBILITY.

* - STATION DOES NOT REPORT WEATHER SUCH AS PRECIPITATION OR FOG.

+ - STATION NOT QUALITY CONTROLLED BY THE NATIONAL WEATHER SERVICE.
    USE DATA WITH CAUTION...ESPECIALLY DEWPOINT AND RELATIVE
    HUMIDITY OBSERVATIONS.

INZ001>003-010>013-019-020-241600-
NORTHWEST INDIANA

CITY           SKY/WX    TMP DP  RH WIND       PRES   REMARKS
GARY /AIRPORT/ SUNNY     82  63  51 S5        30.11S
KNOX *+        SUNNY     81  61  50 S6        30.12S
LA PORTE +     SUNNY     80  63  56 S7        30.14S
MICHIGAN CITY+ SUNNY     81  61  50 S6        30.12S
MONTICELLO +   SUNNY     78  63  58 S5        30.11F
RENSSELAER +   SUNNY     79  61  53 SE5       30.11F
VALPARAISO     SUNNY     82  64  54 SE7       30.13S

$$

LMZ046-743>745-241600-
SOUTHERN LAKE MICHIGAN

STATION/POSITION TIME  TEMP    WIND        PRES    WAVE
                       AIR SEA DIR/SP/G            HT
                 (UTC) (F)     (DEG/KT/KT) (MB)    (FT)
BURNS HARBOR     1440   81     160/  5/ 10 1020.0S
MICHIGAN CITY    1430   79     140/  9/ 10   N/A
5NW MICH CITY    1500   76 72  170/  6/  6   N/A     0

$$

INZ004-005-014>016-021>024-241600-
NORTH CENTRAL INDIANA

CITY           SKY/WX    TMP DP  RH WIND       PRES   REMARKS
GOSHEN         SUNNY     81  60  48 SE8       30.13F
LOGANSPORT +   SUNNY     81  59  47 SE7       30.13F
PERU/GRISSOM   SUNNY     80  63  56 SE6       30.12F
SOUTH BEND     SUNNY     81  62  52 S8        30.13F
WARSAW +       SUNNY     79  63  57 SE3       30.14S

$$

INZ006>009-017-018-025>027-241600-
NORTHEAST INDIANA

CITY           SKY/WX    TMP DP  RH WIND       PRES   REMARKS
AUBURN +       SUNNY     79  61  53 SE3       30.16F
FORT WAYNE     SUNNY     80  63  55 E6        30.15S
HUNTINGTON +   SUNNY     80  61  52 S5        30.14S
KENDALLVILLE + SUNNY     78  64  62 SE6       30.16S

$$

INZ028-029-035-036-043>045-051>053-241600-
WEST CENTRAL INDIANA

CITY           SKY/WX    TMP DP  RH WIND       PRES   REMARKS
GREENCASTLE +  SUNNY     81  63  54 CALM      30.12S
LAFAYETTE      SUNNY     78  67  68 CALM      30.11S
TERRE HAUTE    SUNNY     82  64  54 SE5       30.10S

$$

INZ030>032-037>040-046>048-054>057-064-065-241600-
CENTRAL INDIANA

CITY           SKY/WX    TMP DP  RH WIND       PRES   REMARKS
CP ATTERBURY + SUNNY     77  63  61 E3        30.13S
COLUMBUS       SUNNY     77  59  53 CALM      30.12S
FISHERS *+     SUNNY     81  66  61 CALM      30.13S
FRANKFORT +    CLOUDY    84  64  50 E6        30.13F
GREENWOOD *+   MOSUNNY   82  64  55 SE3       30.13S
INDIANAPOLIS   SUNNY     80  62  54 E5        30.12S
-EAGLE CREEK   SUNNY     80  61  52 SE6       30.12S
KOKOMO +       SUNNY     80  64  58 SE5       30.14F
MT COMFORT *+  SUNNY     79  61  53 E6        30.13S
SHELBYVILLE    SUNNY     81  60  48 E6        30.11F
ZIONSVILLE +   SUNNY     79  62  55 E5        30.14S

$$

INZ033-034-041-042-049-050-058-059-241600-
EAST CENTRAL INDIANA

CITY           SKY/WX    TMP DP  RH WIND       PRES   REMARKS
MUNCIE         SUNNY     81  60  48 VRB3      30.14S
RICHMOND +     SUNNY     77  61  57 E5        30.16S

$$

INZ060-061-067>069-081>083-085>088-241600-
SOUTHWEST INDIANA

CITY           SKY/WX    TMP DP  RH WIND       PRES   REMARKS
EVANSVILLE     SUNNY     80  65  59 CALM      30.08S
HUNTINGBURG +  SUNNY     79  68  69 CALM      30.09S
WASHINGTON +   SUNNY     81  62  52 CALM      30.09F

$$

INZ062-063-066-070>080-084-089>092-241600-
SOUTH CENTRAL AND SOUTHEAST INDIANA

CITY           SKY/WX    TMP DP  RH WIND       PRES   REMARKS
BEDFORD +      SUNNY     79  63  57 CALM      30.10S
BLOOMINGTON    SUNNY     81  61  50 VRB5      30.11S
MADISON *+     SUNNY     79  63  57 E3        30.13S
NORTH VERNON + SUNNY     79  63  57 E3        30.12S
SEYMOUR +      SUNNY     79  63  57 SE3       30.11S

$$





USA.gov is the U.S. government's official web portal to all federal, state and local government web resources and services.